This demonstration page uses our WeatherBlox Daily Observations layout. Learn more.

41.55636, -103.73856

Hourly Observations for January 31, 2018

Temp ( °F °C ) Dew Point ( °F °C ) Humidity (%) Winds ( mph kmh ) Pressure ( in mb ) Visibility ( mi km ) Precip ( " mm )
1:53 am 01:53 Clear 31 -0.6 27 -2.8 85 85 NW 10 17 29.91 1013 10 16.09344 0 0
2:37 am 02:37 Mostly Cloudy 32 0 28 -2.2 85 85 W 6 9 30.03 1017 10 16.09344 0 0
2:48 am 02:48 Partly Cloudy 30 -1 27 -3 86 86 WNW 5 7 30.06 1018 10 16.09344 0 0
2:53 am 02:53 Partly Cloudy 30 -1.1 27 -2.8 88 88 WNW 5 7 29.91 1013 10 16.09344 0 0
3:53 am 03:53 Clear 29 -1.7 27 -2.8 92 92 Calm 29.91 1013 10 16.09344 0 0
4:53 am 04:53 Partly Cloudy 28 -2.2 27 -2.8 96 96 W 5 7 29.88 1012 10 16.09344 0 0
5:53 am 05:53 Mostly Cloudy 28 -2.2 27 -2.8 96 96 WNW 6 9 29.88 1012 10 16.09344 0 0
6:53 am 06:53 Clear 30 -1.1 27 -2.8 88 88 W 7 11 29.88 1012 10 16.09344 0 0
7:53 am 07:53 Sunny 31 -0.6 28 -2.2 89 89 WNW 5 7 29.91 1013 10 16.09344 0 0
8:53 am 08:53 Sunny 33 0.6 28 -2.2 82 82 WNW 7 11 29.94 1014 10 16.09344 0 0
9:53 am 09:53 Mostly Sunny 34 1.1 29 -1.7 82 82 WNW 8 13 29.94 1014 10 16.09344 0 0
10:53 am 10:53 Mostly Sunny 37 2.8 29 -1.7 73 73 WNW 10 17 29.94 1014 10 16.09344 0 0
11:53 am 11:53 Cloudy 35 1.7 25 -3.9 67 67 NNW 15 24 29.97 1015 10 16.09344 0 0
12:53 pm 12:53 Cloudy 34 1.1 25 -3.9 70 70 NW 16 26 29.97 1015 10 16.09344 0 0
1:53 pm 13:53 Cloudy 33 0.6 24 -4.4 70 70 NW 15 24 30 1016 10 16.09344 0.001 0.001
2:53 pm 14:53 Cloudy 33 0.6 25 -3.9 72 72 NNW 12 19 30 1016 10 16.09344 0 0
3:53 pm 15:53 Cloudy 34 1.1 22 -5.6 61 61 NNW 17 28 30.03 1017 10 16.09344 0 0
4:53 pm 16:53 Cloudy 33 0.6 21 -6.1 61 61 NNW 15 24 30.06 1018 10 16.09344 0 0
5:53 pm 17:53 Cloudy 32 0 21 -6.1 64 64 NNW 16 26 30.06 1018 10 16.09344 0 0
6:53 pm 18:53 Cloudy 32 0 22 -5.6 66 66 NW 10 17 30.09 1019 10 16.09344 0 0
7:53 pm 19:53 Cloudy 31 -0.6 23 -5 72 72 WNW 8 13 30.09 1019 10 16.09344 0 0
8:53 pm 20:53 Cloudy 31 -0.6 23 -5 72 72 W 9 15 30.09 1019 10 16.09344 0 0
9:53 pm 21:53 Cloudy 32 0 22 -5.6 66 66 WNW 7 11 30.12 1020 10 16.09344 0 0
10:53 pm 22:53 Cloudy 32 0 21 -6.1 64 64 WNW 9 15 30.12 1020 10 16.09344 0 0
11:53 pm 23:53 Cloudy 32 0 21 -6.1 64 64 WNW 7 11 30.15 1021 10 16.09344 0 0

Powered by AerisWeather